"Pseudo-MPEC" for C92AL72

Created 2023 Apr 2 10:22:05 UT using Find_Orb

Click here for an explanation of pseudo-MPECs

 
 Astrometry: 
     C92AL72*1C2023 03 29.39445016 27 27.940+52 28 34.90   ~3TA7 21.45GVNEOCPG96
     C92AL72 1C2023 03 29.39971116 27 27.652+52 28 27.55   ~3TA7 21.46GVNEOCPG96
     C92AL72 1C2023 03 29.40497516 27 27.396+52 28 20.39   ~3TA7 21.31GVNEOCPG96
     C92AL72 1C2023 03 29.41024416 27 27.130+52 28 12.83   ~3TA7 20.96GVNEOCPG96
     C92AL72 KC2023 03 29.49373616 27 23.450+52 26 17.38   ~3TCb 21.05GVNEOCPI52
     C92AL72 KC2023 03 29.49740516 27 23.404+52 26 12.01   ~3TCb 21.52GVNEOCPI52
     C92AL72 KC2023 03 29.50322816 27 23.126+52 26 03.91   ~3TCb 22.05GVNEOCPI52
     C92AL72 KC2023 03 29.50808916 27 22.907+52 25 56.64   ~3TCb 21.83GVNEOCPI52
     C92AL72 KC2023 03 30.33662716 26 55.471+52 06 25.09   ~3U97 21.09GVNEOCPV06
     C92AL72 KC2023 03 30.34297816 26 55.165+52 06 16.31   ~3U97 21.28GVNEOCPV06
     C92AL72 KC2023 03 30.34933016 26 54.870+52 06 07.78   ~3U97 21.26GVNEOCPV06
     C92AL72 KC2023 03 30.35568416 26 54.607+52 05 58.85   ~3U97 21.00GVNEOCPV06
     C92AL72 KC2023 04 01.37238616 25 30.731+51 17 32.17   ~419M 21.58GVNEOCPI52
     C92AL72 KC2023 04 01.37623316 25 30.468+51 17 26.27   ~419M 22.25GVNEOCPI52
     C92AL72 DC2023 04 028Qg)GD[oyN`d7_8AstrometryUXE-_Ayqe-7RA3Y_e)Q5\OFq4^F695
     C92AL72 DC2023 04 02]3+%fWDM3redacted;[%TnCgf(]clickRe5gGopH@+`GQD47#!nG695
     C92AL72 DC2023 04 02N[(.6PhereQW4;HS*i!fory`#skc@v-/g0d51explanationlq9a695

Station data:
(695) Kitt Peak  (N31.958395 W111.594670)  US/Arizona. Measurer S. Deen.
   3.5-m f/1.75 reflector + CCD0.9-m f/7.5 reflector + CCD4.0-m
   Ritchey-Chrétien + CCD0.61-m f/3.5 Schmidt + CCD2.3-m f/9 reflector + CCD.
(G96) Mt. Lemmon Survey  (N32.442751 W110.788720)  US/Arizona.  Observer E.
   J. Christensen. 1.5-m reflector + 10K CCD.
(I52) Steward Observatory, Mt. Lemmon Station  (N32.442544 W110.788920)
   US/Arizona.  Observers T. A. Pruyne, B. M. Africano, E. J. Christensen, G.
   A. Farneth, D. C. Fuls, A. R. Gibbs, A. D. Grauer, H. Gröller, J. A.
   Johnson, R. A. Kowalski, S. M. Larson, G. J. Leonard, D. Rankin, R. L.
   Seaman, F. C. Shelly, K. W. Wierzchoś. 1.0-m prime focus + CCD.
(V06) Catalina Sky Survey-Kuiper  (N32.416844 W110.732550)  US/Arizona.
   Observers T. A. Pruyne, B. M. Africano, E. J. Christensen, G. A. Farneth,
   D. C. Fuls, A. R. Gibbs, A. D. Grauer, H. Gröller, J. A. Johnson, R. A.
   Kowalski, S. M. Larson, G. J. Leonard, D. Rankin, R. L. Seaman, F. C.
   Shelly, K. W. Wierzchoś. 1.55-m reflector + CCD.

Orbital elements:  C92AL72
   Perihelion 2023 Mar 2.67110 +/- 0.102 TT = 16:06:23 (JD 2460006.17110)
Epoch 2023 Apr  2.0 TT = JDT 2460036.5   Earth MOID: 0.3727   Ma: 0.0031
M   5.35394068 +/- 0.35             (J2000 ecliptic)             AutoNEOCP
n   0.17652935 +/- 0.0114           Peri.   74.68234 +/- 0.40
a   3.14720305 +/- 0.135            Node    90.23955 +/- 0.24
e   0.6316487 +/- 0.0143            Incl.   21.85588 +/- 0.34
P   5.58                   H 21.05  G  0.15   U  9.7
q 1.15927615 +/- 0.00472    Q 5.13512995 +/- 0.265
From 17 observations 2023 Mar. 29-Apr. 2; mean residual 0".26
Residuals in arcseconds: 
230329 G96  .76+  .25+    230329 I52  .13+  .05+    230401 I52  .32+  .15+    
230329 G96  .17+  .06+    230329 I52  .08+  .34-    230401 I52  .17-  .28-    
230329 G96  .12-  .07+    230330 V06  .10+  .17+    230402 695  .08-  .01-    
230329 G96  .49-  .29-    230330 V06  .12-  .03+    230402 695  .03+  .02+    
230329 I52  .74-  .12+    230330 V06  .22-  .15+    230402 695  .03-  .06+    
230329 I52  .32+  .08-    230330 V06  .01-  .11-    

Ephemerides (geocentric):
Date (UTC) HH   RA             Dec           delta  r     elong  mag " sig PA
---- --------  ------------   ------------  ------ ------ -----  --- --------
2023 04 02 10  16 24 39.697   +50 51 44.02  .46780 1.2223 107.2 21.8 .296  76
2023 04 02 11  16 24 37.609   +50 50 41.85  .46783 1.2225 107.2 21.8 .304  77
2023 04 02 12  16 24 35.514   +50 49 39.63  .46787 1.2227 107.2 21.8 .313  77
2023 04 02 13  16 24 33.412   +50 48 37.36  .46790 1.2228 107.3 21.8 .321  78
2023 04 02 14  16 24 31.303   +50 47 35.06  .46794 1.2230 107.3 21.8 .330  78
2023 04 02 15  16 24 29.187   +50 46 32.70  .46797 1.2232 107.3 21.8 .339  78
2023 04 02 16  16 24 27.064   +50 45 30.31  .46801 1.2233 107.3 21.8 .348  79
2023 04 02 17  16 24 24.934   +50 44 27.86  .46804 1.2235 107.3 21.8 .358  79
2023 04 02 18  16 24 22.798   +50 43 25.37  .46808 1.2237 107.4 21.8 .367  79
2023 04 02 19  16 24 20.655   +50 42 22.84  .46811 1.2238 107.4 21.8 .377  80
2023 04 02 20  16 24 18.505   +50 41 20.26  .46814 1.2240 107.4 21.8 .387  80
2023 04 02 21  16 24 16.348   +50 40 17.64  .46818 1.2242 107.4 21.8 .397  80
2023 04 02 22  16 24 14.185   +50 39 14.97  .46821 1.2243 107.5 21.8 .407  80
2023 04 02 23  16 24 12.014   +50 38 12.26  .46825 1.2245 107.5 21.8 .417  81
2023 04 03 00  16 24 09.837   +50 37 09.50  .46828 1.2247 107.5 21.8 .428  81
2023 04 03 01  16 24 07.653   +50 36 06.70  .46832 1.2248 107.5 21.8 .438  81
2023 04 03 02  16 24 05.463   +50 35 03.84  .46835 1.2250 107.5 21.8 .449  81
2023 04 03 03  16 24 03.266   +50 34 00.95  .46838 1.2252 107.6 21.8 .460  82
2023 04 03 04  16 24 01.062   +50 32 58.01  .46842 1.2253 107.6 21.8 .471  82
2023 04 03 05  16 23 58.851   +50 31 55.02  .46845 1.2255 107.6 21.8 .483  82
2023 04 03 06  16 23 56.634   +50 30 51.99  .46849 1.2257 107.6 21.8 .494  82
2023 04 03 07  16 23 54.410   +50 29 48.91  .46852 1.2258 107.6 21.8 .506  82
2023 04 03 08  16 23 52.179   +50 28 45.78  .46855 1.2260 107.7 21.8 .518  82
2023 04 03 09  16 23 49.942   +50 27 42.61  .46859 1.2262 107.7 21.8 .530  83
2023 04 03 10  16 23 47.698   +50 26 39.39  .46862 1.2263 107.7 21.8 .542  83
2023 04 03 11  16 23 45.447   +50 25 36.13  .46866 1.2265 107.7 21.8 .555  83
2023 04 03 12  16 23 43.190   +50 24 32.82  .46869 1.2267 107.7 21.8 .567  83
2023 04 03 13  16 23 40.926   +50 23 29.46  .46873 1.2268 107.8 21.8 .580  83
2023 04 03 14  16 23 38.656   +50 22 26.06  .46876 1.2270 107.8 21.8 .593  83
2023 04 03 15  16 23 36.379   +50 21 22.61  .46879 1.2272 107.8 21.8 .606  83
2023 04 03 16  16 23 34.096   +50 20 19.11  .46883 1.2274 107.8 21.8 .619  83
2023 04 03 17  16 23 31.806   +50 19 15.56  .46886 1.2275 107.9 21.8 .633  83
2023 04 03 18  16 23 29.509   +50 18 11.97  .46890 1.2277 107.9 21.8 .646  83
2023 04 03 19  16 23 27.206   +50 17 08.34  .46893 1.2279 107.9 21.8 .660  84
2023 04 03 20  16 23 24.896   +50 16 04.65  .46896 1.2280 107.9 21.8 .674  84
2023 04 03 21  16 23 22.580   +50 15 00.92  .46900 1.2282 107.9 21.8 .688  84
2023 04 03 22  16 23 20.257   +50 13 57.14  .46903 1.2284 108.0 21.8 .703  84
2023 04 03 23  16 23 17.928   +50 12 53.31  .46907 1.2285 108.0 21.8 .717  84
2023 04 04 00  16 23 15.593   +50 11 49.44  .46910 1.2287 108.0 21.8 .732  84
2023 04 04 01  16 23 13.250   +50 10 45.52  .46913 1.2289 108.0 21.8 .747  84
2023 04 04 02  16 23 10.902   +50 09 41.55  .46917 1.2291 108.1 21.8 .762  84
2023 04 04 03  16 23 08.547   +50 08 37.53  .46920 1.2292 108.1 21.8 .777  84
2023 04 04 04  16 23 06.186   +50 07 33.47  .46924 1.2294 108.1 21.8 .793  84
2023 04 04 05  16 23 03.818   +50 06 29.35  .46927 1.2296 108.1 21.8 .808  84
2023 04 04 06  16 23 01.443   +50 05 25.19  .46930 1.2297 108.1 21.8 .824  84
2023 04 04 07  16 22 59.063   +50 04 20.98  .46934 1.2299 108.2 21.8 .840  84
2023 04 04 08  16 22 56.676   +50 03 16.73  .46937 1.2301 108.2 21.8 .857  84
2023 04 04 09  16 22 54.282   +50 02 12.42  .46941 1.2303 108.2 21.8 .873  84